When you browse on this site, cookies collect data to enhance your experience and personalize the content and advertising you see.
Visit our Privacy Policy to learn more. By continuing to use the site, you agree to this use of cookies and data.
  • In Hungary
  • List of Countries
  • For 7 days
  • Water Temperature
  • Weather Map
  • News
  • Weather Widgets
  • user-avatar
    Login

    Hourly Weather Bolshoe Petrovo

    Today, 26 January, Sunday

    Time Temperature Precipitation Wind Pressure Humidity
    00:00 -5°C° 0 mm 5 mps 737 mmHg 83%
    01:00 -6°C° 0 mm 5 mps 737 mmHg 82%
    02:00 -6°C° 0 mm 5 mps 738 mmHg 81%
    03:00 -5°C° 0 mm 4 mps 738 mmHg 82%
    04:00 -5°C° 0 mm 4 mps 739 mmHg 84%
    05:00 -5°C° 0 mm 3 mps 740 mmHg 85%
    06:00 -5°C° 0 mm 3 mps 740 mmHg 87%
    07:00 -5°C° 0 mm 3 mps 740 mmHg 88%
    08:00 -6°C° 0 mm 3 mps 740 mmHg 90%
    09:00 -5°C° 0 mm 3 mps 740 mmHg 87%
    10:00 -4°C° 0 mm 4 mps 741 mmHg 84%
    11:00 -3°C° 0 mm 4 mps 741 mmHg 81%
    12:00 -3°C° 0.1 mm 4 mps 740 mmHg 84%
    13:00 -3°C° 0.1 mm 4 mps 739 mmHg 87%
    14:00 -4°C° 0.1 mm 5 mps 739 mmHg 90%
    15:00 -4°C° 0.3 mm 5 mps 738 mmHg 91%
    16:00 -2°C° 0.3 mm 5 mps 737 mmHg 93%
    17:00 -3°C° 0.3 mm 6 mps 736 mmHg 95%
    18:00 -2°C° 0.1 mm 6 mps 736 mmHg 94%
    19:00 -1°C° 0.1 mm 6 mps 736 mmHg 93%
    20:00 +1°C° 0.1 mm 6 mps 736 mmHg 93%
    21:00 +1°C° 0.2 mm 6 mps 736 mmHg 93%
    22:00 +1°C° 0.2 mm 6 mps 737 mmHg 93%
    23:00 +1°C° 0.2 mm 6 mps 737 mmHg 93%

    Tomorrow, 27 January, Monday

    Time Temperature Precipitation Wind Pressure Humidity
    00:00 +1°C° 0.1 mm 5 mps 738 mmHg 93%
    01:00 0°C° 0.1 mm 5 mps 739 mmHg 92%
    02:00 -1°C° 0.1 mm 4 mps 739 mmHg 92%
    03:00 -1°C° 0 mm 3 mps 740 mmHg 92%
    04:00 -2°C° 0 mm 3 mps 741 mmHg 92%
    05:00 -3°C° 0 mm 2 mps 741 mmHg 92%
    06:00 -4°C° 0 mm 2 mps 742 mmHg 93%
    07:00 -3°C° 0 mm 1 mps 742 mmHg 93%
    08:00 -3°C° 0 mm 1 mps 743 mmHg 94%
    09:00 -3°C° 0 mm 1 mps 743 mmHg 88%
    10:00 -3°C° 0 mm 1 mps 744 mmHg 82%
    11:00 -3°C° 0 mm 1 mps 744 mmHg 77%
    12:00 -4°C° 0 mm 2 mps 744 mmHg 75%
    13:00 -4°C° 0 mm 2 mps 744 mmHg 73%
    14:00 -4°C° 0 mm 2 mps 744 mmHg 72%
    15:00 -4°C° 0.1 mm 2 mps 744 mmHg 74%
    16:00 -6°C° 0.1 mm 3 mps 744 mmHg 77%
    17:00 -6°C° 0.1 mm 3 mps 744 mmHg 80%
    18:00 -6°C° 0.3 mm 3 mps 744 mmHg 84%
    19:00 -7°C° 0.3 mm 4 mps 744 mmHg 87%
    20:00 -8°C° 0.3 mm 4 mps 744 mmHg 91%
    21:00 -7°C° 0.5 mm 4 mps 744 mmHg 92%
    22:00 -7°C° 0.5 mm 4 mps 744 mmHg 92%
    23:00 -7°C° 0.5 mm 4 mps 743 mmHg 93%

    Day after tomorrow, 28 January, Tuesday

    Time Temperature Precipitation Wind Pressure Humidity
    00:00 -7°C° 0.4 mm 4 mps 743 mmHg 94%
    01:00 -7°C° 0.4 mm 4 mps 743 mmHg 94%
    02:00 -7°C° 0.4 mm 4 mps 742 mmHg 94%
    03:00 -5°C° 0.2 mm 4 mps 742 mmHg 94%
    04:00 -5°C° 0.2 mm 3 mps 742 mmHg 94%
    05:00 -5°C° 0.2 mm 3 mps 741 mmHg 94%
    06:00 -5°C° 0.1 mm 3 mps 741 mmHg 95%
    07:00 -5°C° 0.1 mm 3 mps 741 mmHg 95%
    08:00 -5°C° 0.1 mm 3 mps 741 mmHg 95%
    09:00 -4°C° 0.2 mm 3 mps 741 mmHg 95%
    10:00 -4°C° 0.2 mm 3 mps 741 mmHg 95%
    11:00 -2°C° 0.2 mm 3 mps 741 mmHg 95%
    12:00 -2°C° 0.1 mm 2 mps 740 mmHg 95%
    13:00 -2°C° 0.1 mm 2 mps 740 mmHg 95%
    14:00 -1°C° 0.1 mm 2 mps 740 mmHg 96%
    15:00 -2°C° 0.1 mm 2 mps 740 mmHg 96%
    16:00 -2°C° 0.1 mm 2 mps 740 mmHg 97%
    17:00 -2°C° 0.1 mm 2 mps 740 mmHg 97%
    18:00 -2°C° 0.1 mm 2 mps 740 mmHg 97%
    19:00 -2°C° 0.1 mm 2 mps 740 mmHg 98%
    20:00 -1°C° 0.1 mm 1 mps 740 mmHg 98%
    21:00 -1°C° 0 mm 1 mps 740 mmHg 98%
    22:00 -1°C° 0 mm 1 mps 740 mmHg 98%
    23:00 -1°C° 0 mm 1 mps 740 mmHg 98%

    29 January, Wednesday

    Time Temperature Precipitation Wind Pressure Humidity
    00:00 -1°C° 0 mm 1 mps 740 mmHg 98%
    01:00 -1°C° 0 mm 1 mps 740 mmHg 98%
    02:00 -1°C° 0 mm 1 mps 740 mmHg 98%
    03:00 -3°C° 0 mm 2 mps 739 mmHg 97%
    04:00 -2°C° 0 mm 2 mps 739 mmHg 97%
    05:00 -2°C° 0 mm 2 mps 739 mmHg 97%
    06:00 -2°C° 0 mm 2 mps 739 mmHg 97%
    07:00 -2°C° 0 mm 2 mps 739 mmHg 97%
    08:00 -1°C° 0 mm 2 mps 739 mmHg 97%
    09:00 -1°C° 0 mm 2 mps 739 mmHg 96%
    10:00 -1°C° 0 mm 3 mps 739 mmHg 95%
    11:00 -1°C° 0 mm 3 mps 739 mmHg 94%
    12:00 -1°C° 0 mm 3 mps 739 mmHg 94%
    13:00 -1°C° 0 mm 3 mps 739 mmHg 93%
    14:00 -1°C° 0 mm 3 mps 739 mmHg 93%
    15:00 -1°C° 0 mm 3 mps 738 mmHg 92%
    16:00 -1°C° 0 mm 3 mps 738 mmHg 92%
    17:00 -1°C° 0 mm 3 mps 738 mmHg 92%
    18:00 -1°C° 0 mm 3 mps 738 mmHg 94%
    19:00 -1°C° 0 mm 3 mps 737 mmHg 95%
    20:00 -1°C° 0 mm 3 mps 737 mmHg 97%
    21:00 -1°C° 0 mm 3 mps 737 mmHg 97%
    22:00 0°C° 0 mm 3 mps 736 mmHg 97%
    23:00 0°C° 0 mm 3 mps 736 mmHg 97%

    30 January, Thursday

    Time Temperature Precipitation Wind Pressure Humidity
    00:00 -1°C° 0.1 mm 4 mps 736 mmHg 97%
    01:00 -1°C° 0.1 mm 4 mps 736 mmHg 97%
    02:00 -2°C° 0.1 mm 4 mps 735 mmHg 96%
    03:00 -2°C° 0.1 mm 4 mps 735 mmHg 95%
    04:00 -2°C° 0.1 mm 4 mps 735 mmHg 95%
    05:00 -3°C° 0.1 mm 4 mps 734 mmHg 94%
    06:00 -3°C° 0.1 mm 4 mps 734 mmHg 93%
    07:00 -4°C° 0.1 mm 4 mps 734 mmHg 92%
    08:00 -4°C° 0.1 mm 4 mps 734 mmHg 92%
    09:00 -4°C° 0.1 mm 4 mps 733 mmHg 92%
    10:00 -4°C° 0.1 mm 4 mps 733 mmHg 92%
    11:00 -4°C° 0.1 mm 4 mps 733 mmHg 93%
    12:00 -4°C° 0.3 mm 4 mps 732 mmHg 93%
    13:00 -4°C° 0.3 mm 4 mps 732 mmHg 94%
    14:00 -4°C° 0.3 mm 4 mps 732 mmHg 94%
    15:00 -4°C° 0.6 mm 4 mps 732 mmHg 95%
    16:00 -5°C° 0.6 mm 3 mps 732 mmHg 95%
    17:00 -5°C° 0.6 mm 3 mps 732 mmHg 95%
    18:00 -5°C° 0.3 mm 3 mps 732 mmHg 95%
    19:00 -4°C° 0.3 mm 2 mps 732 mmHg 95%
    20:00 -4°C° 0.3 mm 2 mps 732 mmHg 95%
    21:00 -4°C° 0.1 mm 2 mps 732 mmHg 96%
    22:00 -4°C° 0.1 mm 2 mps 732 mmHg 96%
    23:00 -2°C° 0.1 mm 1 mps 733 mmHg 97%

    31 January, Friday

    Time Temperature Precipitation Wind Pressure Humidity
    00:00 -2°C° 0 mm 1 mps 733 mmHg 97%
    01:00 -1°C° 0 mm 1 mps 733 mmHg 97%
    02:00 -1°C° 0 mm 1 mps 733 mmHg 97%
    03:00 -1°C° 0 mm 1 mps 733 mmHg 97%
    04:00 -1°C° 0 mm 1 mps 733 mmHg 97%
    05:00 -2°C° 0 mm 1 mps 733 mmHg 97%
    06:00 -2°C° 0.1 mm 1 mps 733 mmHg 97%
    07:00 -2°C° 0.1 mm 1 mps 734 mmHg 97%
    08:00 -2°C° 0.1 mm 1 mps 734 mmHg 97%
    09:00 -2°C° 0 mm 1 mps 734 mmHg 96%
    10:00 -1°C° 0 mm 1 mps 734 mmHg 95%
    11:00 0°C° 0 mm 1 mps 735 mmHg 93%
    12:00 0°C° 0 mm 1 mps 735 mmHg 93%
    13:00 0°C° 0 mm 1 mps 735 mmHg 92%
    14:00 0°C° 0 mm 0 mps 735 mmHg 91%
    15:00 0°C° 0 mm 1 mps 735 mmHg 92%
    16:00 -1°C° 0 mm 1 mps 736 mmHg 94%
    17:00 -2°C° 0 mm 1 mps 736 mmHg 95%
    18:00 -2°C° 0 mm 1 mps 737 mmHg 95%
    19:00 -2°C° 0 mm 1 mps 737 mmHg 95%
    20:00 -3°C° 0 mm 1 mps 737 mmHg 96%
    21:00 -3°C° 0 mm 1 mps 738 mmHg 96%
    22:00 -3°C° 0 mm 1 mps 738 mmHg 96%
    23:00 -3°C° 0 mm 1 mps 738 mmHg 96%
    Show more